• In Romania
  • List of Countries
  • For 7 days
  • Water Temperature
  • Satellite Maps
  • Weather Map
  • Weather Widgets
  • user-avatar
    Login

    Hourly Weather Lezhe

    Today, 21 January, Sunday

    Time Temperature Precipitation Wind Pressure Humidity
    00:00 +4°C° 0 mm 2 mps 734 mmHg 84%
    01:00 +4°C° 0 mm 2 mps 734 mmHg 83%
    02:00 +4°C° 0 mm 2 mps 733 mmHg 84%
    03:00 +4°C° 0 mm 2 mps 733 mmHg 84%
    04:00 +5°C° 0 mm 2 mps 732 mmHg 85%
    05:00 +4°C° 0.2 mm 3 mps 732 mmHg 86%
    06:00 +4°C° 0.2 mm 3 mps 731 mmHg 87%
    07:00 +5°C° 0.2 mm 3 mps 730 mmHg 89%
    08:00 +5°C° 0.3 mm 3 mps 730 mmHg 89%
    09:00 +6°C° 0.3 mm 4 mps 729 mmHg 90%
    10:00 +7°C° 0.3 mm 4 mps 729 mmHg 91%
    11:00 +7°C° 0.9 mm 4 mps 728 mmHg 91%
    12:00 +8°C° 0.9 mm 5 mps 727 mmHg 90%
    13:00 +8°C° 0.9 mm 5 mps 726 mmHg 89%
    14:00 +7°C° 3 mm 5 mps 726 mmHg 92%
    15:00 +7°C° 3 mm 5 mps 726 mmHg 94%
    16:00 +7°C° 3 mm 5 mps 725 mmHg 97%
    17:00 +6°C° 3 mm 4 mps 725 mmHg 96%
    18:00 +6°C° 3 mm 4 mps 726 mmHg 95%
    19:00 +6°C° 3 mm 4 mps 726 mmHg 94%
    20:00 +6°C° 0.7 mm 4 mps 726 mmHg 92%
    21:00 +5°C° 0.7 mm 4 mps 727 mmHg 89%
    22:00 +5°C° 0.7 mm 4 mps 727 mmHg 86%
    23:00 +3°C° 0.1 mm 5 mps 728 mmHg 84%

    Tomorrow, 22 January, Monday

    Time Temperature Precipitation Wind Pressure Humidity
    00:00 +3°C° 0.1 mm 5 mps 729 mmHg 82%
    01:00 +2°C° 0.1 mm 5 mps 729 mmHg 80%
    02:00 +1°C° 0 mm 5 mps 730 mmHg 80%
    03:00 0°C° 0 mm 5 mps 730 mmHg 79%
    04:00 0°C° 0 mm 5 mps 731 mmHg 79%
    05:00 -1°C° 0 mm 5 mps 731 mmHg 78%
    06:00 -1°C° 0 mm 4 mps 732 mmHg 77%
    07:00 -2°C° 0 mm 4 mps 733 mmHg 77%
    08:00 0°C° 0 mm 4 mps 733 mmHg 72%
    09:00 +1°C° 0 mm 4 mps 733 mmHg 67%
    10:00 +3°C° 0 mm 4 mps 734 mmHg 63%
    11:00 +4°C° 0 mm 4 mps 734 mmHg 61%
    12:00 +4°C° 0 mm 4 mps 734 mmHg 59%
    13:00 +5°C° 0 mm 4 mps 734 mmHg 57%
    14:00 +4°C° 0 mm 3 mps 734 mmHg 60%
    15:00 +4°C° 0 mm 3 mps 735 mmHg 63%
    16:00 +3°C° 0 mm 3 mps 735 mmHg 67%
    17:00 +2°C° 0 mm 3 mps 735 mmHg 68%
    18:00 +1°C° 0 mm 3 mps 736 mmHg 69%
    19:00 0°C° 0 mm 3 mps 736 mmHg 70%
    20:00 0°C° 0 mm 3 mps 737 mmHg 67%
    21:00 0°C° 0 mm 3 mps 737 mmHg 65%
    22:00 0°C° 0 mm 3 mps 738 mmHg 62%
    23:00 0°C° 0 mm 3 mps 738 mmHg 61%

    Day after tomorrow, 23 January, Tuesday

    Time Temperature Precipitation Wind Pressure Humidity
    00:00 0°C° 0 mm 3 mps 738 mmHg 59%
    01:00 0°C° 0 mm 3 mps 738 mmHg 57%
    02:00 +1°C° 0 mm 2 mps 738 mmHg 57%
    03:00 +1°C° 0 mm 2 mps 738 mmHg 56%
    04:00 +1°C° 0 mm 2 mps 738 mmHg 56%
    05:00 +1°C° 0 mm 2 mps 738 mmHg 56%
    06:00 +1°C° 0 mm 2 mps 739 mmHg 57%
    07:00 +1°C° 0 mm 2 mps 739 mmHg 57%
    08:00 +3°C° 0 mm 2 mps 740 mmHg 55%
    09:00 +4°C° 0 mm 2 mps 740 mmHg 53%
    10:00 +6°C° 0 mm 2 mps 740 mmHg 50%
    11:00 +7°C° 0 mm 2 mps 740 mmHg 50%
    12:00 +7°C° 0 mm 3 mps 740 mmHg 50%
    13:00 +8°C° 0 mm 3 mps 740 mmHg 51%
    14:00 +7°C° 0 mm 3 mps 741 mmHg 54%
    15:00 +5°C° 0 mm 3 mps 741 mmHg 58%
    16:00 +4°C° 0 mm 3 mps 741 mmHg 62%
    17:00 +3°C° 0 mm 4 mps 742 mmHg 64%
    18:00 +1°C° 0 mm 4 mps 742 mmHg 66%
    19:00 0°C° 0 mm 4 mps 743 mmHg 68%
    20:00 0°C° 0 mm 4 mps 744 mmHg 69%
    21:00 -1°C° 0 mm 4 mps 744 mmHg 70%
    22:00 -1°C° 0 mm 5 mps 745 mmHg 71%
    23:00 -1°C° 0 mm 4 mps 745 mmHg 71%

    24 January, Wednesday

    Time Temperature Precipitation Wind Pressure Humidity
    00:00 -1°C° 0 mm 4 mps 745 mmHg 71%
    01:00 -2°C° 0 mm 4 mps 746 mmHg 70%
    02:00 -2°C° 0 mm 4 mps 746 mmHg 69%
    03:00 -2°C° 0 mm 4 mps 746 mmHg 68%
    04:00 -2°C° 0 mm 4 mps 746 mmHg 68%
    05:00 -2°C° 0 mm 4 mps 746 mmHg 67%
    06:00 -2°C° 0 mm 4 mps 747 mmHg 66%
    07:00 -2°C° 0 mm 4 mps 747 mmHg 65%
    08:00 0°C° 0 mm 3 mps 747 mmHg 61%
    09:00 +2°C° 0 mm 3 mps 747 mmHg 57%
    10:00 +3°C° 0 mm 3 mps 747 mmHg 53%
    11:00 +4°C° 0 mm 3 mps 747 mmHg 51%
    12:00 +6°C° 0 mm 2 mps 747 mmHg 49%
    13:00 +7°C° 0 mm 2 mps 747 mmHg 47%
    14:00 +6°C° 0 mm 2 mps 747 mmHg 52%
    15:00 +6°C° 0 mm 2 mps 747 mmHg 56%
    16:00 +6°C° 0 mm 1 mps 746 mmHg 60%
    17:00 +4°C° 0 mm 2 mps 747 mmHg 63%
    18:00 +3°C° 0 mm 2 mps 747 mmHg 65%
    19:00 +2°C° 0 mm 2 mps 747 mmHg 67%
    20:00 +2°C° 0 mm 2 mps 747 mmHg 65%
    21:00 +2°C° 0 mm 2 mps 747 mmHg 64%
    22:00 +2°C° 0 mm 2 mps 747 mmHg 62%
    23:00 +2°C° 0 mm 2 mps 747 mmHg 60%

    25 January, Thursday

    Time Temperature Precipitation Wind Pressure Humidity
    00:00 +2°C° 0 mm 2 mps 747 mmHg 58%
    01:00 +2°C° 0 mm 2 mps 746 mmHg 56%
    02:00 +2°C° 0 mm 2 mps 746 mmHg 54%
    03:00 +2°C° 0 mm 2 mps 746 mmHg 52%
    04:00 +2°C° 0 mm 2 mps 745 mmHg 50%
    05:00 +2°C° 0 mm 2 mps 745 mmHg 49%
    06:00 +3°C° 0 mm 1 mps 745 mmHg 48%
    07:00 +3°C° 0 mm 1 mps 745 mmHg 47%
    08:00 +4°C° 0 mm 1 mps 745 mmHg 46%
    09:00 +6°C° 0 mm 1 mps 745 mmHg 44%
    10:00 +7°C° 0 mm 0 mps 744 mmHg 43%
    11:00 +8°C° 0 mm 1 mps 744 mmHg 45%
    12:00 +9°C° 0 mm 1 mps 743 mmHg 46%
    13:00 +9°C° 0 mm 1 mps 743 mmHg 48%
    14:00 +9°C° 0 mm 1 mps 742 mmHg 53%
    15:00 +8°C° 0 mm 1 mps 742 mmHg 58%
    16:00 +7°C° 0 mm 1 mps 742 mmHg 63%
    17:00 +6°C° 0 mm 1 mps 742 mmHg 65%
    18:00 +5°C° 0 mm 1 mps 742 mmHg 67%
    19:00 +4°C° 0 mm 1 mps 742 mmHg 69%
    20:00 +4°C° 0 mm 1 mps 742 mmHg 67%
    21:00 +4°C° 0 mm 1 mps 742 mmHg 66%
    22:00 +4°C° 0 mm 1 mps 742 mmHg 64%
    23:00 +4°C° 0 mm 1 mps 741 mmHg 63%

    26 January, Friday

    Time Temperature Precipitation Wind Pressure Humidity
    00:00 +4°C° 0 mm 1 mps 741 mmHg 61%
    01:00 +4°C° 0 mm 1 mps 741 mmHg 60%
    02:00 +3°C° 0 mm 2 mps 741 mmHg 59%
    03:00 +3°C° 0 mm 2 mps 741 mmHg 58%
    04:00 +3°C° 0 mm 2 mps 741 mmHg 57%
    05:00 +3°C° 0 mm 2 mps 741 mmHg 57%
    06:00 +2°C° 0 mm 2 mps 741 mmHg 57%
    07:00 +2°C° 0 mm 2 mps 741 mmHg 57%
    08:00 +4°C° 0 mm 2 mps 742 mmHg 55%
    09:00 +7°C° 0 mm 1 mps 742 mmHg 53%
    10:00 +8°C° 0 mm 1 mps 742 mmHg 51%
    11:00 +9°C° 0 mm 1 mps 742 mmHg 51%
    12:00 +9°C° 0 mm 1 mps 742 mmHg 51%
    13:00 +10°C° 0 mm 1 mps 741 mmHg 52%
    14:00 +9°C° 0 mm 1 mps 741 mmHg 56%
    15:00 +9°C° 0 mm 1 mps 742 mmHg 60%
    16:00 +8°C° 0 mm 1 mps 742 mmHg 64%
    17:00 +7°C° 0 mm 1 mps 742 mmHg 65%
    18:00 +6°C° 0 mm 1 mps 742 mmHg 67%
    19:00 +5°C° 0 mm 1 mps 743 mmHg 69%
    20:00 +5°C° 0 mm 1 mps 743 mmHg 68%
    21:00 +4°C° 0 mm 2 mps 743 mmHg 68%
    22:00 +4°C° 0 mm 2 mps 744 mmHg 67%
    23:00 +4°C° 0 mm 2 mps 744 mmHg 67%
    Show more